Location: Unspecified
(0.0000°N, 1.0000°E)
Time: 18:37:30
(UTC+02:00)

Daily predictions for brighter satellites

Satellite Brightness Start Highest point End
(mag) Time Altitude Azimuth Time Altitude Azimuth Time Altitude Azimuth
CZ-3C R/B 4.4 19:13:12 10° SSW 19:18:09 22° SSE 19:36:31 10° ESE
Cosmos 2100 Rocket 4.3 20:19:00 10° N 20:25:19 77° W 20:31:36 10° S
Meteor 2-2 Rocket 4.4 20:32:01 10° N 20:38:02 87° E 20:44:03 10° S
Cosmos 1725 Rocket 4.1 20:35:12 10° N 20:41:12 56° E 20:47:15 10° SSE
SL-08 R/B 4.5 20:37:07 10° N 20:43:25 75° E 20:49:39 10° S
Cosmos 1151 Rocket 3.3 20:40:25 10° NNE 20:44:28 44° E 20:48:32 10° SSE
ATLAS 2A CENTAUR R/B 3.9 20:42:40 10° NNW 20:47:45 39° NE 21:00:24 15° ESE
COSMOS 2455 4.1 20:44:35 10° SSE 20:48:32 18° ESE 20:52:28 10° ENE
Cosmos 2016 Rocket 4.2 20:43:59 10° N 20:50:02 74° W 20:56:10 10° S
Cosmos 1864 Rocket 4.4 20:44:58 10° N 20:51:05 70° E 20:57:11 10° S
Ariane H10-3 3.0 20:50:43 10° WSW 20:53:28 35° S 20:54:42 21° SE
Cosmos 1515 Rocket 3.6 20:49:21 10° N 20:53:46 89° E 20:58:14 10° S
BLOCK DM-SL R/B 3.9 14:08:28 10° W 20:59:24 90° N 21:04:25 17° E
Cosmos 1400 Rocket 3.0 20:55:33 10° S 20:59:34 49° E 21:03:32 10° NNE
Cosmos 1937 Rocket 4.2 20:55:20 10° SSE 20:59:46 29° ESE 21:04:08 10° NE
Cosmos 2233 Rocket 4.2 20:55:11 10° NNE 21:01:02 47° E 21:06:56 10° SSE
COSMOS 2406 3.4 20:58:46 10° N 21:04:18 51° ENE 21:08:39 17° SE
Milstar 3 Cent rocket 2.6 21:03:13 10° WNW 21:07:56 59° SSW 21:12:34 20° SE
BREEZE-M DEB (TANK) 4.3 21:05:35 10° S 21:08:31 16° SSE 21:08:31 16° SSE
SWIFT 3.4 21:07:15 10° SW 21:10:46 25° SSE 21:11:17 25° SSE
GPS 2-18 Rocket1 4.5 21:09:02 10° W 21:12:32 29° SSW 21:14:07 22° SSE
Cosmos 292 Rocket 4.0 21:10:13 10° N 21:14:51 46° ENE 21:16:52 29° SE
NOSS 3-2 (A) 4.2 21:11:33 10° SW 21:17:10 50° WNW 21:22:50 10° N
GPS 2-14 Rocket1 4.2 21:20:07 10° NW 21:23:36 27° NNE 21:24:40 24° NE
In-Cosmos 22 Rocket 4.3 21:19:42 10° S 21:25:04 49° E 21:30:33 10° NNE
Cosmos 1315 Rocket 2.9 21:27:06 49° ENE 21:27:06 49° ENE 21:30:37 10° NNE
Cosmos 2344 4.3 21:20:13 10° S 21:28:10 31° ESE 21:29:23 30° ESE
HJ-1C 3.2 21:27:50 69° SSE 21:28:12 84° ENE 21:31:36 10° N
Spot 2 Rocket 4.3 21:31:43 32° ENE 21:31:43 32° ENE 21:35:41 10° NNE
NOSS 3-2 (C) 4.2 21:29:22 10° SW 21:35:00 50° WNW 21:40:39 10° N
Cosmos 1538 Rocket 4.0 21:30:39 10° N 21:35:51 60° ENE 21:36:51 50° ESE
Resurs 01 Rocket 2.2 21:41:12 42° NE 21:41:12 42° NE 21:44:32 10° N
H-2A R/B 3.1 21:39:45 43° SSW 21:40:49 62° WSW 21:44:41 10° NNW
Cosmos 1455 2.7 21:37:19 10° NNW 21:40:59 55° W 21:41:57 41° SW
ISS -0.7 21:45:32 10° W 21:47:36 16° NW 21:49:39 10° NNW
Sylda 4400 3.8 21:42:24 10° W 21:51:26 75° N 21:51:46 72° NE
ALOS 4.4 21:49:08 10° SSW 21:52:53 24° WSW 21:56:37 10° NW
Cosmos 1707 Rocket 4.3 21:52:29 10° N 21:55:33 45° N 21:55:33 45° N
Envisat 4.5 22:00:20 25° NNE 22:00:20 25° NNE 22:02:34 10° N
Cosmos 1933 Rocket 4.3 22:00:51 47° NNW 22:00:51 47° NNW 22:04:04 10° N
CZ-3B DEB 3.5 21:52:36 10° NNW 22:03:03 63° ENE 22:05:23 52° ESE
ARIANE 5 R/B 3.1 21:53:45 10° W 22:03:53 67° W 22:03:53 67° W
CENTAUR R/B 4.5 21:59:17 10° SSW 22:12:10 - NNE 21:59:20 10° SSW
Ariane 42L R/B 3.5 22:01:32 10° WSW 22:04:16 53° SSW 22:04:16 53° SSW
Lacrosse 5 rocket 3.4 22:06:10 10° WSW 22:07:57 21° W 22:07:57 21° W
Tsikada Rocket 4.2 22:03:45 13° SSW 22:09:23 68° W 22:15:35 10° N
Ariane H10+ 3.0 22:08:25 10° W 22:13:37 35° NW 22:13:37 35° NW
Cosmos 2369 Rocket 4.2 22:19:56 17° NNE 22:19:56 17° NNE 22:21:10 10° NNE
H-10 deb 3.3 22:16:07 10° W 22:18:12 47° WNW 22:18:12 47° WNW
COSMOS 2455 4.2 22:28:46 10° SW 22:34:11 36° WNW 22:39:37 10° N
